Bloomington, IN

11:02 AM EST on December 09, 2019 (GMT -0500)
Monroe County

Weather History for KBMG - November, 2019

Change the Weather History Date:

Thursday, November 14, 2019

  Actual Average Record
Temperature  
Mean Temperature 34 °F 45 °F  
Max Temperature 43 °F 55 °F 72 °F (2011)
Min Temperature 25 °F 35 °F 16 °F (2014)
Degree Days  
Heating Degree Days 31 20  
Month to date heating degree days 405 247  
Since 1 July heating degree days 704 666  
Cooling Degree Days 0 0  
Month to date cooling degree days 0 0  
Year to date cooling degree days 1239 926  
Moisture  
Dew Point 22 °F    
Average Humidity 63    
Maximum Humidity 85    
Minimum Humidity 49    
Precipitation  
Precipitation 0.00 in 0.14 in 0.79 in (2011)
Month to date precipitation 0.60 1.89  
Year to date precipitation 42.79 41.96  
Sea Level Pressure  
Sea Level Pressure 30.25 in    
Wind  
Wind Speed 5 mph ()    
Max Wind Speed 10 mph    
Max Gust Speed 15 mph    
Visibility 9.9 miles    
Events      
T = Trace of Precipitation, MM = Missing Value Source: Averaged Metar Reports

Daily Weather History Graph

Daily Weather History Graph

Search for Another Location

Airport or City:

Astronomy

Nov. 14, 2019 Rise Set
Actual Time 7:28 AM EST 5:32 PM EST
Civil Twilight 6:59 AM EST 6:01 PM EST
Nautical Twilight 6:27 AM EST 6:33 PM EST
Astronomical Twilight 5:55 AM EST 7:05 PM EST
Moon 7:18 PM EST (11/14) 9:22 AM EST (11/14)
Length of Visible Light 11h 01m
Length of Day
10h 04m
Waning Gibbous, 95% of the Moon is Illuminated
Nov 14
Waning Gibbous
Nov 19
Last Quarter
Nov 26
New
Dec 4
First Quarter
Dec 12
Full

Hourly Weather History & Observations

Time (EST) Temp. Windchill Dew Point Humidity Pressure Visibility Wind Dir Wind Speed Gust Speed Precip Events Conditions
12:53 AM 30.0 °F 25.2 °F 19.0 °F 64% 30.18 in 10.0 mi SW 4.6 mph - N/A   Clear
1:53 AM 30.9 °F 24.3 °F 19.0 °F 61% 30.16 in 10.0 mi SSW 6.9 mph - N/A   Mostly Cloudy
2:53 AM 30.9 °F 23.5 °F 19.9 °F 64% 30.17 in 10.0 mi SW 8.1 mph - N/A   Overcast
3:53 AM 30.9 °F 22.8 °F 19.9 °F 64% 30.17 in 10.0 mi SW 9.2 mph - N/A   Mostly Cloudy
4:53 AM 30.0 °F 23.2 °F 19.0 °F 64% 30.17 in 10.0 mi SW 6.9 mph - N/A   Overcast
5:53 AM 30.9 °F 25.2 °F 19.9 °F 64% 30.18 in 10.0 mi South 5.8 mph - N/A   Overcast
6:53 AM 30.9 °F 24.3 °F 19.9 °F 64% 30.20 in 10.0 mi SW 6.9 mph - N/A   Overcast
7:53 AM 28.9 °F 23.9 °F 18.0 °F 64% 30.22 in 10.0 mi SW 4.6 mph - N/A   Clear
8:53 AM 30.9 °F 24.3 °F 19.0 °F 61% 30.25 in 10.0 mi SW 6.9 mph - N/A   Clear
9:53 AM 33.1 °F 27.7 °F 19.9 °F 59% 30.26 in 10.0 mi WSW 5.8 mph - N/A   Partly Cloudy
10:53 AM 34.0 °F 27.2 °F 21.0 °F 59% 30.26 in 10.0 mi SW 8.1 mph - N/A   Clear
11:53 AM 37.0 °F 34.5 °F 21.9 °F 54% 30.25 in 10.0 mi SW 3.5 mph - N/A   Clear
12:53 PM 39.9 °F 36.7 °F 23.0 °F 51% 30.25 in 10.0 mi SW 4.6 mph - N/A   Partly Cloudy
1:53 PM 42.1 °F 38.4 °F 24.1 °F 49% 30.25 in 10.0 mi WSW 5.8 mph - N/A   Mostly Cloudy
2:53 PM 41.0 °F 37.1 °F 24.1 °F 51% 30.25 in 10.0 mi SW 5.8 mph - N/A   Overcast
3:53 PM 41.0 °F 37.1 °F 24.1 °F 51% 30.26 in 10.0 mi WSW 5.8 mph - N/A   Overcast
4:53 PM 39.9 °F 35.1 °F 24.1 °F 53% 30.28 in 10.0 mi WSW 6.9 mph - N/A   Clear
5:53 PM 35.1 °F 32.2 °F 26.1 °F 70% 30.30 in 10.0 mi WSW 3.5 mph - N/A   Clear
6:53 PM 32.0 °F - 25.0 °F 75% 30.32 in 10.0 mi Calm Calm - N/A   Clear
7:53 PM 32.0 °F 28.7 °F 23.0 °F 69% 30.33 in 10.0 mi WNW 3.5 mph - N/A   Clear
8:53 PM 32.0 °F 28.7 °F 24.1 °F 73% 30.34 in 10.0 mi WNW 3.5 mph - N/A   Clear
9:53 PM 30.9 °F 27.5 °F 24.1 °F 76% 30.35 in 10.0 mi NW 3.5 mph - N/A   Clear
10:53 PM 30.0 °F - 23.0 °F 75% 30.35 in 10.0 mi Calm Calm - N/A   Clear
11:53 PM 27.0 °F - 23.0 °F 85% 30.36 in 8.0 mi Calm Calm - N/A   Clear